Tracking 20040 objects as of 18-Nov-2019
Live streaming from Space Station
objects crossing your sky now

EXOCUBE

Track EXOCUBE now!
10-day predictions
EXOCUBE is classified as:


NORAD ID: 40380
Int'l Code: 2015-003E
Perigee: 435.7 km
Apogee: 627.5 km
Inclination: 99.1 °
Period: 95.1 minutes
Semi major axis: 6902 km
RCS: Unknown
Launch date: January 31, 2015
Source: United States (US)
Launch site: AIR FORCE WESTERN TEST RANGE (AFWTR)

Uplink (MHz):
Downlink (MHz): 437.270
Beacon (MHz): 437.270
Mode: 9600bps FSK CW
Call sign: KK6HGC XO3
Status: Active

aabbcc
Your satellite tracking list
Your tracking list is empty




NASA's NSSDC Master Catalog

Two Line Element Set (TLE):
1 40380U 15003E   19321.55746204 +.00001708 +00000-0 +79361-4 0  9999
2 40380 099.1266 322.5007 0138907 338.2272 021.3085 15.13844784264347
Source of the keplerian elements: Caltech